Regional Weather Roundup
Issued by NWS Jackson, KY

Home | Current Version | Previous Version | Graphics & Text | Print | Product List | Glossary On
Versions: 1 2 3 4 5 6 7 8 9 10 11 12 13 14 15 16 17 18 19 20 21 22 23 24 25 26 27 28 29 30 31 32 33 34 35 36 37 38 39 40 41 42 43 44 45 46 47 48 49 50
000
ASUS43 KJKL 251810
RWRJKL

EAST KENTUCKY HOURLY WEATHER ROUNDUP
NATIONAL WEATHER SERVICE JACKSON KY
200 PM EDT SAT OCT 25 2014

NOTE: "FAIR" INDICATES FEW OR NO CLOUDS BELOW 12,000 FEET WITH
NO SIGNIFICANT WEATHER AND/OR OBSTRUCTIONS TO VISIBILITY.

* THESE REPORTS ARE NOT UNDER NWS QUALITY CONTROL AND MAY NOT
  REPORT WEATHER SUCH AS PRECIPITATION AND FOG.

KYZ079-080-083-085-087-088-110-112-115-119-120-251900
...EASTERN KENTUCKY...

CITY           SKY/WX    TMP DP  RH WIND       PRES   REMARKS
JACKSON        CLOUDY    63  48  58 VRB5      30.02F
6HR MIN TEMP:  42; 6HR MAX TEMP:  66;

LONDON         CLOUDY    65  49  56 SW6       30.04F
6HR MIN TEMP:  40; 6HR MAX TEMP:  65;

SOMERSET*      CLOUDY    63  52  67 SW5       30.05F
MONTICELLO*    CLOUDY    69  54  58 SW9       30.06F
6HR MIN TEMP:  41; 6HR MAX TEMP:  69;

WILLIAMSBURG*  CLOUDY    66  50  55 MISG      30.04F
MIDDLESBORO*   CLOUDY    66  50  54 CALM      30.05F
6HR MIN TEMP:  38; 6HR MAX TEMP:  66;

HARLAN APT*    CLOUDY    64  45  48 W5        30.05F
HAZARD APT*    MOCLDY    64  48  55 SW5       30.02F
BLACK MTN*       N/A     55  43  62 SW1         N/A
PIKEVILLE APT* CLOUDY    63  48  59 S5        30.01F
BIG SANDY*     CLOUDY    64  49  59 SW5       30.01F
6HR MIN TEMP:  42; 6HR MAX TEMP:  64;

MOREHEAD APT*  CLOUDY    63  52  67 SW9       30.01F
$$

KYZ035-036-041-042-044-050-067-078-099-251900
...CENTRAL KENTUCKY...

CITY           SKY/WX    TMP DP  RH WIND       PRES   REMARKS
MT STERLING*   CLOUDY    63  54  72 W9        30.01F HAZE
FLEMING/MASON* CLOUDY    64  54  68 SW13      29.97F
DANVILLE*      PTSUNNY   68  54  60 W8        30.02F
RICHMOND*      PTSUNNY   64  52  63 SW12      30.02F
LEXINGTON      MOSUNNY   69  55  60 SW12      29.99F
6HR MIN TEMP:  47; 6HR MAX TEMP:  69;

FRANKFORT      PTSUNNY   68  56  65 SW6       29.97F
6HR MIN TEMP:  43; 6HR MAX TEMP:  68;

$$

KYZ091>093-OHZ055-061-077-WVZ005-015-034-035-042-251900
...SOUTHERN OHIO/WEST VIRGINIA...

CITY           SKY/WX    TMP DP  RH WIND       PRES   REMARKS
COVINGTON      MOSUNNY   69  57  65 SW8       29.95F
COLUMBUS       PTSUNNY   68  54  60 SW13      29.87F
DAYTON         MOSUNNY   72  56  57 W12       29.91F
WILMINGTON     CLOUDY    66  55  67 W13       29.92F
HUNTINGTON     CLOUDY    62  49  62 S6        29.97F
CHARLESTON     PTSUNNY   66  48  52 SW10      29.98F
PINEVILLE*     PTSUNNY   64  51  62 MISG      30.07F
BECKLEY        MOSUNNY   60  41  49 SW8G17    30.01F
BLUEFIELD      SUNNY     62  41  46 W14       30.04F
$$

VAZ002-007-008-TNZ017-027-036-066-071-251900
...SOUTHWEST VIRGINIA/EAST TENNESSEE...

CITY           SKY/WX    TMP DP  RH WIND       PRES   REMARKS
WISE*          MOSUNNY   64  43  45 SW8       30.06F
JONESVILLE*    CLEAR     66  46  48 SW3       30.07F
ABINGDON*      SUNNY     63  46  53 SW9       30.06F
BRISTOL        SUNNY     64  48  56 CALM      30.05F
KNOXVILLE      SUNNY     67  48  50 W3        30.06F
OAK RIDGE      SUNNY     69  48  47 VRB5      30.07F
CROSSVILLE     PTSUNNY   67  48  50 W5        30.08F
NASHVILLE      MOSUNNY   77  58  51 W5        30.04F
$$

...KEY TO REMARKS...
VSB - VISIBILITY IN MILES
WCI - WIND CHILL INDEX
HX  - HEAT INDEX

$$



USA.gov is the U.S. government's official web portal to all federal, state and local government web resources and services.